When you browse on this site, cookies collect data to enhance your experience and personalize the content and advertising you see.
Visit our Privacy Policy to learn more. By continuing to use the site, you agree to this use of cookies and data.

Stündliche Wetter Tykhomel'

Heute, 13 Juli, Montag

Zeit Temperatur Niederschläge Wind Luftdruck Luftfeuchtigkeit
00:00 +10°C° 0 mm 3 m/S 743 mmHg 95%
01:00 +9°C° 0 mm 3 m/S 743 mmHg 95%
02:00 +9°C° 0 mm 3 m/S 743 mmHg 95%
03:00 +9°C° 0 mm 3 m/S 743 mmHg 95%
04:00 +9°C° 0 mm 3 m/S 743 mmHg 96%
05:00 +9°C° 0 mm 3 m/S 742 mmHg 96%
06:00 +10°C° 0 mm 4 m/S 742 mmHg 93%
07:00 +12°C° 0 mm 5 m/S 742 mmHg 89%
08:00 +13°C° 0 mm 5 m/S 742 mmHg 85%
09:00 +14°C° 0.1 mm 6 m/S 742 mmHg 80%
10:00 +15°C° 0.1 mm 6 m/S 742 mmHg 74%
11:00 +16°C° 0.1 mm 6 m/S 742 mmHg 69%
12:00 +17°C° 0.1 mm 6 m/S 742 mmHg 67%
13:00 +17°C° 0.1 mm 6 m/S 742 mmHg 65%
14:00 +19°C° 0.1 mm 6 m/S 742 mmHg 63%
15:00 +17°C° 0.1 mm 5 m/S 741 mmHg 66%
16:00 +17°C° 0.1 mm 5 m/S 741 mmHg 70%
17:00 +17°C° 0.1 mm 4 m/S 741 mmHg 73%
18:00 +15°C° 0 mm 4 m/S 741 mmHg 78%
19:00 +14°C° 0 mm 4 m/S 740 mmHg 82%
20:00 +13°C° 0 mm 3 m/S 740 mmHg 87%
21:00 +12°C° 0 mm 3 m/S 740 mmHg 89%
22:00 +11°C° 0 mm 3 m/S 740 mmHg 91%
23:00 +10°C° 0 mm 3 m/S 740 mmHg 93%

Morgen, 14 Juli, Dienstag

Zeit Temperatur Niederschläge Wind Luftdruck Luftfeuchtigkeit
00:00 +10°C° 0 mm 3 m/S 740 mmHg 94%
01:00 +10°C° 0 mm 3 m/S 740 mmHg 94%
02:00 +9°C° 0 mm 3 m/S 741 mmHg 95%
03:00 +9°C° 0 mm 3 m/S 740 mmHg 95%
04:00 +9°C° 0 mm 3 m/S 740 mmHg 96%
05:00 +9°C° 0 mm 3 m/S 740 mmHg 96%
06:00 +11°C° 0 mm 3 m/S 740 mmHg 92%
07:00 +13°C° 0 mm 4 m/S 740 mmHg 88%
08:00 +14°C° 0 mm 4 m/S 741 mmHg 83%
09:00 +15°C° 0.1 mm 4 m/S 740 mmHg 78%
10:00 +18°C° 0.1 mm 4 m/S 740 mmHg 72%
11:00 +19°C° 0.1 mm 4 m/S 740 mmHg 66%
12:00 +19°C° 0.1 mm 5 m/S 740 mmHg 65%
13:00 +20°C° 0.1 mm 5 m/S 740 mmHg 65%
14:00 +20°C° 0.1 mm 5 m/S 739 mmHg 65%
15:00 +20°C° 0.2 mm 4 m/S 739 mmHg 67%
16:00 +20°C° 0.2 mm 4 m/S 739 mmHg 70%
17:00 +20°C° 0.2 mm 4 m/S 739 mmHg 72%
18:00 +18°C° 0.1 mm 3 m/S 739 mmHg 77%
19:00 +17°C° 0.1 mm 3 m/S 739 mmHg 82%
20:00 +16°C° 0.1 mm 2 m/S 739 mmHg 87%
21:00 +15°C° 0 mm 2 m/S 739 mmHg 89%
22:00 +14°C° 0 mm 2 m/S 739 mmHg 90%
23:00 +13°C° 0 mm 2 m/S 739 mmHg 92%

übermorgen, 15 Juli, Mittwoch

Zeit Temperatur Niederschläge Wind Luftdruck Luftfeuchtigkeit
00:00 +13°C° 0 mm 2 m/S 739 mmHg 93%
01:00 +13°C° 0 mm 2 m/S 739 mmHg 94%
02:00 +12°C° 0 mm 2 m/S 739 mmHg 95%
03:00 +12°C° 0 mm 2 m/S 739 mmHg 95%
04:00 +12°C° 0 mm 2 m/S 739 mmHg 95%
05:00 +12°C° 0 mm 2 m/S 739 mmHg 96%
06:00 +13°C° 0 mm 2 m/S 739 mmHg 91%
07:00 +15°C° 0 mm 2 m/S 740 mmHg 87%
08:00 +17°C° 0 mm 2 m/S 740 mmHg 82%
09:00 +18°C° 0 mm 2 m/S 740 mmHg 77%
10:00 +19°C° 0 mm 2 m/S 740 mmHg 72%
11:00 +20°C° 0 mm 2 m/S 740 mmHg 67%
12:00 +20°C° 0 mm 2 m/S 739 mmHg 65%
13:00 +21°C° 0 mm 2 m/S 739 mmHg 64%
14:00 +21°C° 0 mm 2 m/S 739 mmHg 63%
15:00 +21°C° 0 mm 2 m/S 739 mmHg 63%
16:00 +22°C° 0 mm 1 m/S 739 mmHg 63%
17:00 +23°C° 0 mm 1 m/S 739 mmHg 62%
18:00 +21°C° 0 mm 1 m/S 739 mmHg 68%
19:00 +20°C° 0 mm 1 m/S 739 mmHg 73%
20:00 +16°C° 0 mm 0 m/S 739 mmHg 79%
21:00 +15°C° 0 mm 0 m/S 739 mmHg 81%
22:00 +16°C° 0 mm 1 m/S 739 mmHg 83%
23:00 +15°C° 0 mm 1 m/S 739 mmHg 84%

16 Juli, Donnerstag

Zeit Temperatur Niederschläge Wind Luftdruck Luftfeuchtigkeit
00:00 +15°C° 0 mm 1 m/S 739 mmHg 85%
01:00 +14°C° 0 mm 1 m/S 739 mmHg 86%
02:00 +14°C° 0 mm 1 m/S 739 mmHg 87%
03:00 +14°C° 0 mm 1 m/S 739 mmHg 88%
04:00 +14°C° 0 mm 1 m/S 738 mmHg 88%
05:00 +14°C° 0 mm 1 m/S 738 mmHg 88%
06:00 +16°C° 0 mm 2 m/S 738 mmHg 85%
07:00 +17°C° 0 mm 2 m/S 738 mmHg 82%
08:00 +19°C° 0 mm 2 m/S 738 mmHg 78%
09:00 +20°C° 0.1 mm 2 m/S 738 mmHg 75%
10:00 +21°C° 0.1 mm 2 m/S 738 mmHg 71%
11:00 +23°C° 0.1 mm 2 m/S 738 mmHg 68%
12:00 +24°C° 1.3 mm 2 m/S 738 mmHg 68%
13:00 +24°C° 1.3 mm 2 m/S 738 mmHg 68%
14:00 +24°C° 1.3 mm 3 m/S 738 mmHg 68%
15:00 +24°C° 0.4 mm 2 m/S 737 mmHg 69%
16:00 +24°C° 0.4 mm 2 m/S 737 mmHg 71%
17:00 +24°C° 0.4 mm 2 m/S 737 mmHg 72%
18:00 +23°C° 0.3 mm 2 m/S 737 mmHg 76%
19:00 +20°C° 0.3 mm 2 m/S 737 mmHg 80%
20:00 +20°C° 0.3 mm 1 m/S 737 mmHg 84%
21:00 +19°C° 0 mm 1 m/S 737 mmHg 85%
22:00 +19°C° 0 mm 1 m/S 737 mmHg 86%
23:00 +17°C° 0 mm 2 m/S 737 mmHg 88%

17 Juli, Freitag

Zeit Temperatur Niederschläge Wind Luftdruck Luftfeuchtigkeit
00:00 +18°C° 0 mm 1 m/S 737 mmHg 89%
01:00 +16°C° 0 mm 1 m/S 737 mmHg 89%
02:00 +16°C° 0 mm 1 m/S 737 mmHg 90%
03:00 +16°C° 0 mm 1 m/S 737 mmHg 90%
04:00 +16°C° 0 mm 1 m/S 737 mmHg 91%
05:00 +16°C° 0 mm 1 m/S 737 mmHg 91%
06:00 +18°C° 0 mm 1 m/S 737 mmHg 89%
07:00 +18°C° 0 mm 2 m/S 737 mmHg 87%
08:00 +19°C° 0 mm 2 m/S 737 mmHg 84%
09:00 +20°C° 0.8 mm 2 m/S 737 mmHg 81%
10:00 +22°C° 0.8 mm 3 m/S 737 mmHg 78%
11:00 +24°C° 0.8 mm 3 m/S 737 mmHg 75%
12:00 +24°C° 1.1 mm 3 m/S 737 mmHg 73%
13:00 +25°C° 1.1 mm 3 m/S 737 mmHg 70%
14:00 +25°C° 1.1 mm 3 m/S 737 mmHg 68%
15:00 +25°C° 0.7 mm 2 m/S 737 mmHg 69%
16:00 +25°C° 0.7 mm 2 m/S 737 mmHg 70%
17:00 +25°C° 0.7 mm 1 m/S 737 mmHg 72%
18:00 +24°C° 0.6 mm 1 m/S 737 mmHg 76%
19:00 +22°C° 0.6 mm 1 m/S 737 mmHg 80%
20:00 +21°C° 0.6 mm 1 m/S 737 mmHg 84%
21:00 +21°C° 0 mm 1 m/S 737 mmHg 85%
22:00 +20°C° 0 mm 1 m/S 738 mmHg 86%
23:00 +20°C° 0 mm 1 m/S 738 mmHg 87%

18 Juli, Samstag

Zeit Temperatur Niederschläge Wind Luftdruck Luftfeuchtigkeit
00:00 +20°C° 0 mm 1 m/S 738 mmHg 88%
01:00 +19°C° 0 mm 1 m/S 738 mmHg 89%
02:00 +19°C° 0 mm 1 m/S 738 mmHg 91%
03:00 +18°C° 0 mm 1 m/S 738 mmHg 92%
04:00 +17°C° 0 mm 2 m/S 738 mmHg 92%
05:00 +17°C° 0 mm 2 m/S 738 mmHg 93%
06:00 +18°C° 0 mm 2 m/S 738 mmHg 92%
07:00 +18°C° 0 mm 2 m/S 738 mmHg 91%
08:00 +20°C° 0 mm 1 m/S 738 mmHg 90%
09:00 +20°C° 0.2 mm 1 m/S 739 mmHg 88%
10:00 +21°C° 0.2 mm 1 m/S 739 mmHg 86%
11:00 +22°C° 0.2 mm 1 m/S 739 mmHg 84%
12:00 +21°C° 1 mm 2 m/S 739 mmHg 83%
13:00 +23°C° 1 mm 2 m/S 739 mmHg 82%
14:00 +22°C° 1 mm 3 m/S 739 mmHg 80%
15:00 +21°C° 0.8 mm 3 m/S 739 mmHg 83%
16:00 +21°C° 0.8 mm 4 m/S 739 mmHg 86%
17:00 +20°C° 0.8 mm 5 m/S 739 mmHg 89%
18:00 +19°C° 0 mm 4 m/S 739 mmHg 91%
19:00 +18°C° 0 mm 3 m/S 739 mmHg 94%
20:00 +17°C° 0 mm 2 m/S 739 mmHg 96%
21:00 +16°C° 0 mm 2 m/S 739 mmHg 97%
22:00 +16°C° 0 mm 2 m/S 739 mmHg 97%
23:00 +15°C° 0 mm 2 m/S 739 mmHg 98%
Mehr zeigen